Sachse, Texas
Current Conditions -  °F | °C
As of 5:55 AM on Saturday 25 Oct 2014 (Local Time) from KF46 Reporting Station
Clear Clear  
Wind Chill: 62°   Ceiling: Unl
Heat Index: 62°   Visibility: 10mi
Dew Point: 59°   Wind: 8mph
Humidity: 89%   Direction: 190°S
Pressure: 30.11"   Gusts: NA
Location:  32.9674°N, 96.5785°W
Report Text: KF46 251055Z AUTO 19007KT 10SM CLR 17/15 A3011 RMK AO2 T01680149
Loading
Personal Weather Stations






























Interactive Weather Map
Tropical Storm Tracking
New forecast layout! Learn more

10-Day Weather Forecast

Advertisements
Track Severe Weather on mobile